www.pogodaiklimat.ru

Погода и климат >> Архив погоды >> Россия >> Дагестан >> Дербент


ПОГОДА в Дербенте

АРХИВ ПОГОДЫ в Дербенте

Время (UTC), дата Ветер
(напр.,м/с)
 
Видим.   Явления Облачность Т
(С)
Тd
(С)
f
(%)
Тe
(С)
Тes
(С)
Комфортность P
(гПа)
Po
(гПа)
Тmin
(С)
Tmax
(С)
R
(мм)
R24
(мм)
S
(см)
21 16.06 З 3 4000 м слабый ливневой дождь 10/10 300 м
[Cb cap]
+18.3 +13.0 71 +19 +19 прохладно 1014.8 1017.0
00 17.06 СЗ 2 4000 м {ливн. осадки} 10/10 300 м
[Cb cap]
+15.7 +13.8 88 +16 +16 прохладно 1016.1 1018.3
03 17.06 З 1 4000 м слабый ливневой дождь 10/10 300 м
[Cb cap]
+16.1 +13.4 84 +17 +17 холодно 1016.5 1018.6 +15.6 11
06 17.06 СЗ 1 20 км {ливн. осадки} 9/6 300 м
[Cb cap Ac trans]
+19.4 +13.1 67 +22 +25 комфорт 1017.4 1019.5
09 17.06 В 2 20 км 4/0
[Ac trans]
+22.0 +14.8 64 +25 +41 комфорт 1016.2 1018.3
12 17.06 В 3 20 км ясно +21.6 +14.1 62 +24 +34 комфорт 1015.4 1017.5
15 17.06 ЮВ 2 20 км ясно +20.1 +13.9 67 +23 +24 комфорт 1015.1 1017.2 +22.1
18 17.06 Ю 3 10 км ясно +18.0 +12.9 72 +18 +18 холодно 1015.0 1017.2
21 17.06 Ю 3 10 км ясно +17.0 +13.9 82 +17 +17 прохладно 1013.9 1016.0
00 18.06 Ю 2 10 км ясно +17.4 +11.1 66 +18 +18 прохладно 1012.5 1014.6
03 18.06 Ю 3 20 км ясно +18.0 +12.8 72 +18 +20 холодно 1012.5 1014.6 +16.0
06 18.06 ЮВ 2 20 км 8/4 300 м
[Cb cap Ac trans]
+20.9 +15.4 71 +25 +30 комфорт 1011.6 1013.7
09 18.06 В 4 20 км 9/9 300 м
[Cb cap]
+20.7 +16.8 78 +24 +26 комфорт 1010.6 1012.7
12 18.06 В 5 20 км 9/5 300 м
[Cb cap Ac trans Ci fib]
+21.4 +17.1 76 +25 +27 комфорт 1009.8 1011.9
15 18.06 В 1 20 км 8/3 300 м
[Cb cap Ac trans]
+20.3 +17.3 83 +25 +25 комфорт 1010.2 1012.3 +22.8
18 18.06 С 1 10 км 9/9 300 м
[Cb cap]
+20.0 +16.8 82 +24 +24 комфорт 1011.3 1013.4
21 18.06 С 1 10 км 9/8 300 м
[Cb cap Ac trans]
+19.7 +16.5 82 +23 +23 комфорт 1010.6 1012.7
00 19.06 СЗ 1 10 км 10/10 300 м
[Cb cap]
+19.3 +16.1 82 +22 +22 комфорт 1009.8 1011.9
03 19.06 СЗ 1 20 км 9/9 600 м
[Sc]
+20.0 +16.4 80 +24 +24 комфорт 1009.6 1011.7 +19.3
06 19.06 С 3 20 км 8/0
[Ac trans Ci fib]
+22.4 +17.2 72 +27 +34 душно 1009.1 1011.2
09 19.06 С 3 20 км 5/0
[Ac trans Ci fib]
+25.5 +17.8 62 +30 +43 душно 1008.3 1010.4
12 19.06 С 4 20 км 8/0
[Ac trans Ci fib]
+23.7 +17.5 68 +28 +33 душно 1008.1 1010.2
15 19.06 С 2 20 км 9/4 600 м
[Sc Ac trans Ci fib]
+21.9 +12.8 56 +24 +25 комфорт 1008.6 1010.7 +25.8
18 19.06 СЗ 2 10 км 3/0
[Ac trans]
+21.5 +11.5 53 +24 +24 комфорт 1009.1 1011.2
21 19.06 СЗ 3 10 км 3/0
[Ac trans]
+22.3 +13.6 58 +25 +25 комфорт 1008.6 1010.7
00 20.06 З 2 10 км 9/9 300 м
[Cb cap]
+21.0 +15.6 71 +25 +25 комфорт 1007.9 1010.0
03 20.06 СЗ 2 20 км в посл. час ливневой дождь {гроза} 5/0
[Ac trans Ci fib]
+20.5 +16.0 75 +24 +26 комфорт 1008.0 1010.1 +20.1 0.3
06 20.06 С 4 20 км {гроза, ливн. осадки} 8/0
[Ac trans Ci fib]
+25.1 +18.0 65 +29 +36 душно 1006.9 1008.9
09 20.06 С 3 20 км ясно +25.4 +17.6 62 +30 +46 душно 1005.6 1007.7
12 20.06 С 4 20 км 4/0
[Ci fib]
+24.8 +17.7 65 +29 +36 душно 1004.8 1006.8
15 20.06 СЗ 3 20 км 10/10 600 м
[Sc]
+21.7 +16.7 73 +26 +26 душно 1007.4 1009.5 +26.1
18 20.06 З 1 10 км 10/10 600 м
[Sc]
+21.0 +14.7 67 +25 +25 комфорт 1006.3 1008.4
21 20.06 З 3 20 км 10/10 600 м
[Sc]
+21.3 +13.3 60 +24 +24 комфорт 1007.3 1009.4
00 21.06 СЗ 2 10 км 3/0
[Ac trans]
+20.2 +13.8 67 +23 +23 комфорт 1006.6 1008.7
03 21.06 СЗ 2 20 км 4/0
[Ac trans]
+22.4 +15.2 64 +26 +28 жарко 1006.8 1008.9 +19.8
06 21.06 С 5-10
{13}
20 км 8/4 600 м
[Sc Ac trans]
+23.0 +16.6 67 +28 +30 душно 1008.3 1010.4
09 21.06 С 5-12
{12}
20 км 4/0
[Ac trans]
+25.4 +17.6 62 +30 +38 душно 1008.7 1010.8
12 21.06 С 3 20 км 8/4 600 м
[Sc Ac trans]
+25.3 +16.7 59 +29 +32 душно 1009.0 1011.1
15 21.06 З 2 20 км 4/0
[Ac trans]
+24.9 +14.3 52 +27 +28 жарко 1008.6 1010.7 +26.1
18 21.06 штиль 0 10 км ясно +22.1 +13.6 59 +25 +25 комфорт 1009.0 1011.1
21 21.06 штиль 0 10 км ясно +20.3 +13.8 66 +22 +22 комфорт 1009.0 1011.1
00 22.06 штиль 0 10 км ясно +19.2 +14.3 73 +20 +20 по сезону 1008.6 1010.7
03 22.06 штиль 0 20 км 8/4 600 м
[Sc Ac trans]
+22.2 +15.8 67 +26 +27 душно 1009.2 1011.3 +19.1
06 22.06 В 1 20 км 9/9 600 м
[Sc]
+23.2 +17.3 69 +28 +30 душно 1009.6 1011.7
09 22.06 Ю 2 20 км 10/10 600 м
[Sc]
+25.2 +14.2 50 +28 +28 жарко 1009.4 1011.5
12 22.06 ЮВ 2 20 км в посл. час ливневой дождь 10/10 300 м
[Cb cap]
+23.5 +17.2 68 +27 +27 душно 1009.5 1011.6
15 22.06 В 1 20 км 10/10 300 м
[Cb cap]
+23.6 +16.2 63 +27 +27 жарко 1009.6 1011.6 +25.5 0.0
18 22.06 штиль 0 10 км 9/6 300 м
[Cb cap Ac trans]
+21.9 +14.6 63 +25 +25 комфорт 1010.3 1012.4
21 22.06 штиль 0 10 км 9/8 300 м
[Cb cap Ac trans]
+21.1 +14.5 66 +24 +24 комфорт 1010.8 1012.9
00 23.06 штиль 0
{11}
10 км 8/0
[Ac trans]
+21.8 +14.9 65 +25 +25 комфорт 1011.8 1013.9
03 23.06 С 1 20 км 9/4 600 м
[Sc Ac trans Ci fib]
+23.0 +16.8 68 +28 +29 душно 1012.9 1015.0 +20.8
06 23.06 В 2 20 км 5/0
[Ac trans]
+26.2 +16.5 55 +30 +39 душно 1014.2 1016.3
09 23.06 С 2 20 км ясно +26.7 +15.8 51 +30 +50 душно 1014.4 1016.5
12 23.06 С 2 20 км 9/8 300 м
[Cb cap Ac trans]
+24.9 +14.3 52 +27 +29 жарко 1014.0 1016.1
15 23.06 ЮВ 1 20 км 3/0
[Ac trans]
+24.0 +14.3 55 +27 +28 жарко 1013.3 1015.4 +28.1
18 23.06 СЗ 3 10 км 10/10 300 м
[Cb cap]
+22.9 +15.8 64 +27 +27 душно 1015.9 1018.0

 

Местоположение метеостанции Дербент (Дагестан, Россия): широта 42.07 долгота 48.30 высота над уровнем моря -17 м.

В архиве по умолчанию представлена погода в Дербенте за последнюю неделю. Архивные данные за месяц целиком и за предыдущие месяцы, начиная с января 2011 года, Вы можете получить, выбрав интересующий диапазон дат из раскрывающегося списка и нажав кнопку "Ввод!".

Внимание! Время в таблицах - всемирное. Для получения местного времени необходимо прибавить поправку, которая в Дербенте равна 3 ч.

Смотрите также архив погоды в соседних городах и на ближайших метеорологических станциях:

Погода в Касумкенте (Дагестан, Россия) (46 км)
Погода в Изберге (Дагестан, Россия) (60 км)
Погода в Сергокале (Дагестан, Россия) (67 км)
Погода в Губе (Азербайджан) (80 км)
Погода в Ахты (Дагестан, Россия) (81 км)
Погода в Кумухе (Дагестан, Россия) (98 км)
Погода в Куппе (Дагестан, Россия) (107 км)
Погода в Гунибе (Дагестан, Россия) (116 км)
Погода в Махачкале (Дагестан, Россия) (125 км)
Погода в Габале (Азербайджан) (126 км)

Пояснения к столбцам:

Ветер - указаны скорость ветра в м/с - средняя за 10 мин, порывы в срок и между сроками (в фигурных скобках) и направление, откуда дует ветер: С - северный, СВ - северо-восточный, В - восточный, ЮВ - юго-восточный, Ю - южный, ЮЗ - юго-западный, З - западный, СЗ - северо-западный.
Видимость - горизонтальная дальность видимости в метрах или километрах. При видимости от 1 до 10 км при отсутствии осадков обычно наблюдается дымка, при ухудшении видимости до 1 км и менее - туман. В сухую погоду видимость может ухудшаться дымом, пылью или мглою.
Явления - указаны атмосферные явления, наблюдавшиеся в срок или в последний час перед сроком; фигурными скобками обозначены явления, наблюдавшиеся между сроками (за 1-3 часа до срока); квадратными скобками обозначены град или гололедные отложения с указанием их диаметра в мм.
Облачность - указаны через наклонную черту общая и нижняя облачность в баллах и высота нижней границы облаков в метрах; квадратными скобками обозначены формы облаков: Ci - перистые, Cs - перисто-слоистые, Cc - перисто-кучевые, Ac - высококучевые, As - высокослоистые, Sc - слоисто-кучевые, Ns - слоисто-дождевые, Cu - кучевые, Cb - кучево-дождевые. Подробнее классификацию облаков см. в Атласе облаков (PDF).
T - Температура воздуха - температура, измеренная на высоте 2 м над землей.
Td - Температура точки росы - температура, при понижении до которой содержащийся в воздухе водяной пар достигнет насыщения.
f - Относительная влажность воздуха - влажноcть воздуха, измеренная на высоте 2 м над землей.
Te - Эффективная температура - температура, которую ощущает одетый по сезону человек в тени. Характеристика душности погоды. При расчете учитывается влияние влажности воздуха и скорости ветра на теплоощущения человека.
Tes - Эффективная температура на солнце - температура, которую ощущает человек, с поправкой на солнечный нагрев. Характеристика знойности погоды. Зависит от высоты солнца над горизонтом, облачности и скорости ветра. Ночью, в пасмурную погоду, а также при ветре 12 м/с и более поправка равна нулю.
P - Атмосферное давление - приведенное к уровню моря атмосферное давление.
Po - Атмосферное давление - измеренное на уровне метеостанции атмосферное давление.
Tmin - Минимальная температура - минимум температуры воздуха на высоте 2 м над землей.
Tmax - Максимальная температура - максимум температуры воздуха на высоте 2 м над землей.
R - Количество осадков - Количество выпавших осадков за период времени, мм. При наведении курсора мыши на число - период времени, за который выпало указанное количество осадков.
R24 - Количество осадков - Количество выпавших осадков за 24 часа, мм.
S - Снежный покров - Высота снежного покрова, см. При наведении курсора мыши на число - состояние снежного покрова и степень покрытия местности в баллах.